EWG7465 EGLL-EDDH

Flight info

Callsign EWG7465
Flight time 1h 19m
Altitude 37000
Route BPK Q295 SOMVA DCT MAVAS DCT GASTU DCT OSTOR/N0367F230 T904 RIBSO RIBSO7A
Aircraft A320/M-SDE3FGHIRWY/LB1

Departure

Time 2026-05-06 15:08
Airport London Heathrow Airport (EGLL)

Arrival

Time 2026-05-06 16:28
Airport Hamburg Helmut Schmidt Airport (EDDH)
Time Latitude Longitude Altitude Speed Heading
2026-05-06 14:39 51.46936 -0.44712 90 ft 0 kts 270°
2026-05-06 14:51 51.46936 -0.44720 90 ft 0 kts 270°
2026-05-06 14:53 51.46996 -0.44682 91 ft 0 kts 270°
2026-05-06 14:55 51.46997 -0.44645 89 ft 4 kts 260°
2026-05-06 14:56 51.47004 -0.44604 88 ft 4 kts 243°
2026-05-06 14:56 51.47019 -0.44570 90 ft 4 kts 213°
2026-05-06 14:56 51.47036 -0.44558 88 ft 0 kts 180°
2026-05-06 14:58 51.47035 -0.44558 88 ft 0 kts 180°
2026-05-06 14:59 51.47007 -0.44558 90 ft 8 kts 179°
2026-05-06 14:59 51.46927 -0.44557 87 ft 15 kts 180°
2026-05-06 14:59 51.46816 -0.44556 87 ft 16 kts 180°
2026-05-06 14:59 51.46751 -0.44645 88 ft 13 kts 264°
2026-05-06 15:00 51.46750 -0.44784 87 ft 12 kts 268°
2026-05-06 15:00 51.46750 -0.44922 87 ft 12 kts 268°
2026-05-06 15:00 51.46751 -0.45061 87 ft 12 kts 271°
2026-05-06 15:00 51.46751 -0.45198 87 ft 12 kts 270°
2026-05-06 15:01 51.46751 -0.45336 87 ft 12 kts 269°
2026-05-06 15:01 51.46749 -0.45486 87 ft 15 kts 269°
2026-05-06 15:01 51.46747 -0.45666 88 ft 17 kts 270°
2026-05-06 15:01 51.46748 -0.45874 87 ft 20 kts 269°
2026-05-06 15:02 51.46747 -0.46110 90 ft 22 kts 269°
2026-05-06 15:02 51.46747 -0.46277 91 ft 23 kts 271°
2026-05-06 15:02 51.46750 -0.46540 87 ft 24 kts 268°
2026-05-06 15:02 51.46747 -0.46816 89 ft 25 kts 270°
2026-05-06 15:03 51.46748 -0.47102 87 ft 26 kts 269°
2026-05-06 15:03 51.46745 -0.47399 87 ft 27 kts 270°
2026-05-06 15:03 51.46744 -0.47706 87 ft 28 kts 270°
2026-05-06 15:03 51.46743 -0.48016 87 ft 28 kts 270°
2026-05-06 15:04 51.46743 -0.48139 87 ft 0 kts 270°
2026-05-06 15:04 51.46743 -0.48141 87 ft 1 kts 269°
2026-05-06 15:04 51.46735 -0.48186 87 ft 7 kts 239°
2026-05-06 15:05 51.46671 -0.48216 87 ft 13 kts 179°
2026-05-06 15:05 51.46621 -0.48216 87 ft 0 kts 179°
2026-05-06 15:06 51.46611 -0.48215 87 ft 5 kts 179°
2026-05-06 15:06 51.46531 -0.48214 88 ft 16 kts 179°
2026-05-06 15:07 51.46482 -0.48155 89 ft 0 kts 95°
2026-05-06 15:07 51.46481 -0.47831 87 ft 68 kts 89°
2026-05-06 15:07 51.46484 -0.46719 91 ft 128 kts 89°
2026-05-06 15:08 51.46507 -0.45061 295 ft 157 kts 84°
2026-05-06 15:08 51.46517 -0.43303 1024 ft 158 kts 84°
2026-05-06 15:08 51.46622 -0.41544 1657 ft 164 kts 69°
2026-05-06 15:08 51.47192 -0.39901 1971 ft 181 kts 47°
2026-05-06 15:09 51.48051 -0.38220 2321 ft 205 kts 47°
2026-05-06 15:09 51.49007 -0.36340 2721 ft 229 kts 49°
2026-05-06 15:09 51.50045 -0.34288 3320 ft 247 kts 49°
2026-05-06 15:09 51.51131 -0.32124 4227 ft 252 kts 49°
2026-05-06 15:10 51.52212 -0.29869 5106 ft 258 kts 57°
2026-05-06 15:10 51.52926 -0.27182 5780 ft 267 kts 69°
2026-05-06 15:10 51.53545 -0.24372 5963 ft 266 kts 65°
2026-05-06 15:10 51.54538 -0.21886 6004 ft 264 kts 45°
2026-05-06 15:11 51.55994 -0.20129 6007 ft 262 kts 25°
2026-05-06 15:11 51.57674 -0.19014 6052 ft 262 kts 22°
2026-05-06 15:11 51.59367 -0.17935 6054 ft 262 kts 17°
2026-05-06 15:11 51.61116 -0.17105 6054 ft 262 kts 17°
2026-05-06 15:12 51.62699 -0.15706 6059 ft 263 kts 43°
2026-05-06 15:12 51.63767 -0.13324 6062 ft 264 kts 59°
2026-05-06 15:12 51.64650 -0.10709 6057 ft 265 kts 61°
2026-05-06 15:12 51.65499 -0.08124 6056 ft 265 kts 61°
2026-05-06 15:13 51.66362 -0.05494 6051 ft 264 kts 61°
2026-05-06 15:13 51.67202 -0.02934 6366 ft 268 kts 61°
2026-05-06 15:13 51.68077 -0.00273 7276 ft 269 kts 61°
2026-05-06 15:13 51.68950 0.02425 8068 ft 275 kts 61°
2026-05-06 15:14 51.69834 0.05195 8883 ft 280 kts 60°
2026-05-06 15:14 51.70713 0.08008 9687 ft 286 kts 61°
2026-05-06 15:14 51.71621 0.10941 10264 ft 300 kts 61°
2026-05-06 15:14 51.72587 0.14064 10528 ft 323 kts 61°
2026-05-06 15:15 51.73634 0.17427 10771 ft 346 kts 61°
2026-05-06 15:15 51.74734 0.20951 11288 ft 356 kts 61°
2026-05-06 15:15 51.75858 0.24550 11954 ft 361 kts 61°
2026-05-06 15:15 51.76999 0.28197 12650 ft 366 kts 62°
2026-05-06 15:16 51.78157 0.31894 13341 ft 371 kts 62°
2026-05-06 15:16 51.79184 0.35688 13992 ft 377 kts 66°
2026-05-06 15:16 51.80163 0.39640 14612 ft 381 kts 67°
2026-05-06 15:16 51.81116 0.43648 15227 ft 385 kts 68°
2026-05-06 15:17 51.82064 0.47722 15849 ft 388 kts 68°
2026-05-06 15:17 51.83014 0.51822 16460 ft 392 kts 68°
2026-05-06 15:17 51.83979 0.55978 17051 ft 396 kts 68°
2026-05-06 15:17 51.84951 0.60151 17658 ft 399 kts 68°
2026-05-06 15:18 51.85940 0.64383 18239 ft 403 kts 68°
2026-05-06 15:18 51.86936 0.68634 18740 ft 406 kts 68°
2026-05-06 15:18 51.87942 0.72923 19236 ft 409 kts 68°
2026-05-06 15:18 51.88953 0.77236 19750 ft 412 kts 68°
2026-05-06 15:19 51.89972 0.81589 20258 ft 415 kts 69°
2026-05-06 15:19 51.90994 0.85973 20753 ft 417 kts 69°
2026-05-06 15:19 51.92018 0.90385 21240 ft 420 kts 69°
2026-05-06 15:19 51.93036 0.94785 21713 ft 423 kts 69°
2026-05-06 15:20 51.94069 0.99267 22186 ft 426 kts 69°
2026-05-06 15:20 51.95109 1.03779 22657 ft 429 kts 69°
2026-05-06 15:20 51.96155 1.08333 23111 ft 432 kts 69°
2026-05-06 15:20 51.97206 1.12919 23548 ft 435 kts 69°
2026-05-06 15:21 51.98263 1.17535 23908 ft 438 kts 69°
2026-05-06 15:21 51.99329 1.22186 24297 ft 440 kts 69°
2026-05-06 15:21 52.00398 1.26850 24671 ft 442 kts 69°
2026-05-06 15:21 52.01473 1.31551 25052 ft 444 kts 69°
2026-05-06 15:22 52.02545 1.36271 25406 ft 447 kts 69°
2026-05-06 15:22 52.03618 1.41016 25770 ft 449 kts 70°
2026-05-06 15:22 52.04692 1.45790 26131 ft 451 kts 70°
2026-05-06 15:22 52.05770 1.50585 26488 ft 453 kts 70°
2026-05-06 15:23 52.06856 1.55407 26836 ft 455 kts 70°
2026-05-06 15:23 52.07947 1.60251 27175 ft 457 kts 70°
2026-05-06 15:23 52.09041 1.65128 27499 ft 460 kts 70°
2026-05-06 15:23 52.10135 1.70021 27813 ft 462 kts 70°
2026-05-06 15:24 52.11230 1.74945 28119 ft 464 kts 70°
2026-05-06 15:24 52.12330 1.79899 28424 ft 466 kts 70°
2026-05-06 15:24 52.13433 1.84867 28722 ft 468 kts 70°
2026-05-06 15:24 52.14545 1.89873 29016 ft 470 kts 70°
2026-05-06 15:25 52.15657 1.94893 29299 ft 472 kts 70°
2026-05-06 15:25 52.16764 1.99920 29700 ft 472 kts 71°
2026-05-06 15:25 52.17866 2.04942 30117 ft 470 kts 71°
2026-05-06 15:25 52.18950 2.09891 30457 ft 470 kts 71°
2026-05-06 15:26 52.20046 2.14900 30821 ft 469 kts 71°
2026-05-06 15:26 52.21136 2.19903 31167 ft 468 kts 71°
2026-05-06 15:26 52.22222 2.24903 31516 ft 467 kts 71°
2026-05-06 15:26 52.23304 2.29895 31866 ft 466 kts 71°
2026-05-06 15:27 52.24385 2.34892 32213 ft 466 kts 71°
2026-05-06 15:27 52.25459 2.39868 32574 ft 465 kts 70°
2026-05-06 15:27 52.26531 2.44838 32916 ft 464 kts 70°
2026-05-06 15:27 52.27605 2.49813 33259 ft 463 kts 70°
2026-05-06 15:28 52.28673 2.54770 33601 ft 463 kts 70°
2026-05-06 15:28 52.29735 2.59729 33945 ft 462 kts 70°
2026-05-06 15:28 52.30788 2.64686 34224 ft 462 kts 71°
2026-05-06 15:28 52.31776 2.69676 34482 ft 462 kts 73°
2026-05-06 15:29 52.32689 2.74727 34724 ft 462 kts 74°
2026-05-06 15:29 52.33547 2.79785 34952 ft 463 kts 75°
2026-05-06 15:29 52.34386 2.84872 35183 ft 464 kts 75°
2026-05-06 15:29 52.35232 2.89964 35408 ft 464 kts 75°
2026-05-06 15:30 52.36095 2.95051 35617 ft 465 kts 75°
2026-05-06 15:30 52.36964 3.00083 35817 ft 465 kts 74°
2026-05-06 15:30 52.37852 3.05170 36044 ft 466 kts 74°
2026-05-06 15:30 52.38744 3.10266 36239 ft 466 kts 74°
2026-05-06 15:31 52.39655 3.15355 36438 ft 467 kts 71°
2026-05-06 15:31 52.40882 3.20274 36636 ft 467 kts 65°
2026-05-06 15:31 52.42249 3.25100 36815 ft 467 kts 65°
2026-05-06 15:32 52.44988 3.34809 36955 ft 471 kts 65°
2026-05-06 15:32 52.46358 3.39685 36954 ft 471 kts 65°
2026-05-06 15:32 52.49093 3.49454 36926 ft 471 kts 65°
2026-05-06 15:33 52.51819 3.59246 36950 ft 472 kts 65°
2026-05-06 15:33 52.54541 3.69044 36950 ft 472 kts 65°
2026-05-06 15:34 52.57256 3.78875 36945 ft 472 kts 66°
2026-05-06 15:34 52.59962 3.88724 36942 ft 473 kts 66°
2026-05-06 15:35 52.62669 3.98589 36944 ft 473 kts 66°
2026-05-06 15:35 52.65365 4.08464 36945 ft 473 kts 66°
2026-05-06 15:36 52.68036 4.18282 36947 ft 473 kts 66°
2026-05-06 15:36 52.70717 4.28178 36945 ft 473 kts 66°
2026-05-06 15:37 52.73384 4.38091 36951 ft 473 kts 66°
2026-05-06 15:37 52.76043 4.48026 36956 ft 473 kts 66°
2026-05-06 15:38 52.78701 4.57956 36955 ft 473 kts 66°
2026-05-06 15:38 52.81355 4.67913 36954 ft 473 kts 67°
2026-05-06 15:39 52.83992 4.77881 36955 ft 473 kts 67°
2026-05-06 15:39 52.86616 4.87855 36950 ft 473 kts 67°
2026-05-06 15:40 52.89226 4.97771 36947 ft 473 kts 67°
2026-05-06 15:40 52.91856 5.07829 36942 ft 473 kts 67°
2026-05-06 15:41 52.94463 5.17862 36942 ft 474 kts 68°
2026-05-06 15:41 52.97049 5.27837 36939 ft 474 kts 68°
2026-05-06 15:42 52.99639 5.37882 36939 ft 473 kts 68°
2026-05-06 15:42 53.02217 5.47937 36943 ft 473 kts 68°
2026-05-06 15:43 53.04795 5.58009 36949 ft 473 kts 68°
2026-05-06 15:43 53.07362 5.68082 36953 ft 473 kts 68°
2026-05-06 15:44 53.09914 5.78161 36953 ft 473 kts 68°
2026-05-06 15:44 53.12455 5.88275 36956 ft 473 kts 68°
2026-05-06 15:45 53.14986 5.98385 36951 ft 473 kts 68°
2026-05-06 15:45 53.17517 6.08511 36950 ft 473 kts 68°
2026-05-06 15:46 53.20044 6.18644 36929 ft 475 kts 68°
2026-05-06 15:46 53.22597 6.28944 36922 ft 484 kts 68°
2026-05-06 15:47 53.25148 6.39287 36922 ft 486 kts 68°
2026-05-06 15:47 53.27711 6.49749 36921 ft 487 kts 69°
2026-05-06 15:48 53.30267 6.60245 36922 ft 487 kts 69°
2026-05-06 15:48 53.32817 6.70753 36926 ft 487 kts 69°
2026-05-06 15:49 53.35361 6.81264 36925 ft 487 kts 69°
2026-05-06 15:49 53.37833 6.91837 36925 ft 487 kts 71°
2026-05-06 15:50 53.39938 7.02637 36925 ft 487 kts 74°
2026-05-06 15:50 53.41874 7.13526 36923 ft 487 kts 75°
2026-05-06 15:51 53.43850 7.24332 36922 ft 488 kts 73°
2026-05-06 15:51 53.45908 7.35183 36919 ft 488 kts 73°
2026-05-06 15:52 53.47968 7.46042 36917 ft 488 kts 73°
2026-05-06 15:52 53.50004 7.56956 36408 ft 490 kts 73°
2026-05-06 15:53 53.51006 7.62385 35889 ft 484 kts 74°
2026-05-06 15:53 53.51676 7.66030 35290 ft 487 kts 74°
2026-05-06 15:53 53.52653 7.71359 35024 ft 476 kts 74°
2026-05-06 15:53 53.53615 7.76602 34906 ft 462 kts 74°
2026-05-06 15:54 53.54551 7.81701 34654 ft 452 kts 74°
2026-05-06 15:54 53.55473 7.86720 34274 ft 446 kts 74°
2026-05-06 15:54 53.56379 7.91679 33875 ft 441 kts 74°
2026-05-06 15:54 53.57272 7.96598 33389 ft 436 kts 74°
2026-05-06 15:55 53.58144 8.01440 32904 ft 432 kts 74°
2026-05-06 15:55 53.59012 8.06267 32424 ft 427 kts 74°
2026-05-06 15:55 53.59869 8.11021 31954 ft 423 kts 74°
2026-05-06 15:55 53.60727 8.15769 31468 ft 420 kts 74°
2026-05-06 15:56 53.61566 8.20438 31026 ft 416 kts 75°
2026-05-06 15:56 53.62387 8.25026 30581 ft 412 kts 75°
2026-05-06 15:56 53.63206 8.29620 30146 ft 408 kts 75°
2026-05-06 15:56 53.64019 8.34182 29672 ft 404 kts 75°
2026-05-06 15:57 53.64822 8.38700 29146 ft 401 kts 75°
2026-05-06 15:57 53.65618 8.43191 28641 ft 398 kts 75°
2026-05-06 15:57 53.66408 8.47657 28133 ft 396 kts 75°
2026-05-06 15:57 53.67188 8.52088 27641 ft 393 kts 75°
2026-05-06 15:58 53.67962 8.56493 27159 ft 391 kts 75°
2026-05-06 15:58 53.68728 8.60863 26680 ft 388 kts 75°
2026-05-06 15:58 53.69492 8.65218 26204 ft 386 kts 75°
2026-05-06 15:58 53.70245 8.69533 25741 ft 383 kts 75°
2026-05-06 15:59 53.70991 8.73840 25289 ft 381 kts 75°
2026-05-06 15:59 53.71731 8.78127 24826 ft 379 kts 75°
2026-05-06 15:59 53.72467 8.82381 24386 ft 376 kts 75°
2026-05-06 15:59 53.73204 8.86618 23947 ft 374 kts 75°
2026-05-06 16:00 53.73933 8.90823 23516 ft 372 kts 75°
2026-05-06 16:00 53.74655 8.95005 23033 ft 370 kts 75°
2026-05-06 16:00 53.75368 8.99164 22563 ft 368 kts 75°
2026-05-06 16:00 53.76075 9.03301 22129 ft 365 kts 75°
2026-05-06 16:01 53.76774 9.07399 21705 ft 362 kts 75°
2026-05-06 16:01 53.77460 9.11433 21284 ft 360 kts 75°
2026-05-06 16:01 53.78149 9.15494 20824 ft 358 kts 76°
2026-05-06 16:01 53.78846 9.19619 19830 ft 372 kts 76°
2026-05-06 16:02 53.79570 9.23915 18813 ft 387 kts 76°
2026-05-06 16:02 53.80300 9.28362 17702 ft 399 kts 79°
2026-05-06 16:02 53.80471 9.33069 16594 ft 404 kts 98°
2026-05-06 16:02 53.79721 9.37661 15488 ft 409 kts 117°
2026-05-06 16:03 53.79260 9.39092 15179 ft 409 kts 123°
2026-05-06 16:03 53.78119 9.41934 14718 ft 405 kts 127°
2026-05-06 16:03 53.76186 9.45343 13958 ft 402 kts 146°
2026-05-06 16:03 53.73646 9.47184 13261 ft 397 kts 169°
2026-05-06 16:04 53.70911 9.47154 12487 ft 395 kts 192°
2026-05-06 16:04 53.68316 9.45670 11667 ft 395 kts 199°
2026-05-06 16:04 53.65643 9.44686 10886 ft 393 kts 184°
2026-05-06 16:04 53.62917 9.44819 10123 ft 392 kts 172°
2026-05-06 16:05 53.60256 9.45739 9254 ft 386 kts 165°
2026-05-06 16:05 53.57715 9.47016 7938 ft 378 kts 161°
2026-05-06 16:05 53.55250 9.48382 7084 ft 362 kts 160°
2026-05-06 16:05 53.52939 9.49586 6794 ft 332 kts 163°
2026-05-06 16:06 53.50748 9.49807 6650 ft 306 kts 189°
2026-05-06 16:06 53.48886 9.48416 6530 ft 283 kts 218°
2026-05-06 16:06 53.47609 9.46142 6409 ft 261 kts 230°
2026-05-06 16:06 53.46474 9.43875 6284 ft 251 kts 230°
2026-05-06 16:07 53.45345 9.41623 6158 ft 252 kts 230°
2026-05-06 16:07 53.44221 9.39386 6025 ft 248 kts 230°
2026-05-06 16:07 53.43088 9.37340 5879 ft 231 kts 215°
2026-05-06 16:07 53.41684 9.36269 5754 ft 217 kts 187°
2026-05-06 16:08 53.40217 9.36352 5655 ft 209 kts 161°
2026-05-06 16:08 53.38950 9.37443 5532 ft 203 kts 137°
2026-05-06 16:08 53.37876 9.38977 5401 ft 203 kts 136°
2026-05-06 16:08 53.36861 9.40606 5271 ft 200 kts 122°
2026-05-06 16:09 53.36343 9.42710 5144 ft 194 kts 96°
2026-05-06 16:09 53.36437 9.44932 5018 ft 192 kts 71°
2026-05-06 16:09 53.37095 9.46849 4887 ft 191 kts 50°
2026-05-06 16:09 53.37945 9.48521 4760 ft 191 kts 51°
2026-05-06 16:10 53.38794 9.50203 4634 ft 184 kts 50°
2026-05-06 16:10 53.39597 9.51829 4498 ft 177 kts 51°
2026-05-06 16:10 53.40353 9.53354 4372 ft 165 kts 51°
2026-05-06 16:10 53.41068 9.54783 4240 ft 157 kts 51°
2026-05-06 16:11 53.41769 9.56181 4114 ft 156 kts 51°
2026-05-06 16:11 53.42466 9.57567 3979 ft 155 kts 51°
2026-05-06 16:11 53.43157 9.58943 3967 ft 153 kts 50°
2026-05-06 16:11 53.43819 9.60261 3986 ft 151 kts 51°
2026-05-06 16:12 53.44482 9.61581 3869 ft 146 kts 51°
2026-05-06 16:12 53.45134 9.62880 3740 ft 145 kts 51°
2026-05-06 16:12 53.45781 9.64171 3609 ft 144 kts 50°
2026-05-06 16:12 53.46421 9.65448 3486 ft 142 kts 51°
2026-05-06 16:13 53.47056 9.66714 3348 ft 142 kts 50°
2026-05-06 16:13 53.47686 9.67972 3225 ft 140 kts 50°
2026-05-06 16:13 53.48312 9.69223 3118 ft 139 kts 51°
2026-05-06 16:13 53.48926 9.70451 3044 ft 139 kts 51°
2026-05-06 16:14 53.49554 9.71706 3010 ft 139 kts 51°
2026-05-06 16:14 53.50176 9.72950 3006 ft 139 kts 51°
2026-05-06 16:14 53.50793 9.74185 3007 ft 140 kts 51°
2026-05-06 16:14 53.51415 9.75431 3007 ft 137 kts 51°
2026-05-06 16:15 53.52018 9.76640 2999 ft 135 kts 51°
2026-05-06 16:15 53.52620 9.77846 2914 ft 134 kts 51°
2026-05-06 16:15 53.53218 9.79045 2783 ft 134 kts 51°
2026-05-06 16:15 53.53815 9.80243 2610 ft 133 kts 50°
2026-05-06 16:16 53.54409 9.81435 2442 ft 131 kts 51°
2026-05-06 16:16 53.54987 9.82596 2265 ft 128 kts 51°
2026-05-06 16:16 53.55560 9.83748 2092 ft 129 kts 51°
2026-05-06 16:16 53.56145 9.84922 1981 ft 135 kts 50°
2026-05-06 16:17 53.56753 9.86132 2558 ft 135 kts 50°
2026-05-06 16:17 53.57372 9.87367 3377 ft 144 kts 50°
2026-05-06 16:17 53.58070 9.88757 3952 ft 166 kts 50°
2026-05-06 16:17 53.58882 9.90371 4007 ft 191 kts 50°
2026-05-06 16:18 53.59753 9.92110 4007 ft 196 kts 50°
2026-05-06 16:18 53.60624 9.93847 4006 ft 194 kts 50°
2026-05-06 16:18 53.61438 9.95532 3997 ft 173 kts 57°
2026-05-06 16:18 53.61662 9.97380 3985 ft 159 kts 100°
2026-05-06 16:19 53.61283 9.99052 3998 ft 149 kts 112°
2026-05-06 16:19 53.60619 10.00358 3969 ft 153 kts 152°
2026-05-06 16:19 53.59547 10.00628 4026 ft 161 kts 178°
2026-05-06 16:19 53.58433 10.00460 4013 ft 161 kts 184°
2026-05-06 16:20 53.57335 10.00218 4011 ft 161 kts 184°
2026-05-06 16:20 53.56223 9.99962 4010 ft 162 kts 184°
2026-05-06 16:20 53.55107 9.99696 4012 ft 162 kts 186°
2026-05-06 16:20 53.54091 9.98863 4004 ft 163 kts 223°
2026-05-06 16:21 53.53345 9.97426 4014 ft 166 kts 232°
2026-05-06 16:21 53.52660 9.95869 4007 ft 166 kts 234°
2026-05-06 16:21 53.51986 9.94282 4011 ft 166 kts 234°
2026-05-06 16:21 53.51317 9.92694 4006 ft 166 kts 234°
2026-05-06 16:22 53.50615 9.91024 4034 ft 193 kts 234°
2026-05-06 16:22 53.49796 9.89091 4020 ft 209 kts 234°
2026-05-06 16:22 53.48951 9.87081 4010 ft 211 kts 234°
2026-05-06 16:22 53.48119 9.85051 4000 ft 211 kts 242°
2026-05-06 16:23 53.47821 9.82687 3999 ft 208 kts 280°
2026-05-06 16:23 53.48375 9.80550 3792 ft 198 kts 317°
2026-05-06 16:23 53.49513 9.79535 3630 ft 178 kts 358°
2026-05-06 16:23 53.50649 9.79936 3509 ft 162 kts 26°
2026-05-06 16:24 53.51696 9.80502 3374 ft 155 kts 17°
2026-05-06 16:24 53.52719 9.80852 3246 ft 145 kts 14°
2026-05-06 16:24 53.53683 9.81148 3134 ft 148 kts 14°
2026-05-06 16:24 53.54643 9.81921 3054 ft 158 kts 46°
2026-05-06 16:25 53.55354 9.83338 3003 ft 159 kts 50°
2026-05-06 16:25 53.56053 9.84741 2672 ft 156 kts 51°
2026-05-06 16:25 53.56751 9.86144 2271 ft 156 kts 50°
2026-05-06 16:25 53.57450 9.87550 1860 ft 156 kts 51°
2026-05-06 16:26 53.58146 9.88950 1462 ft 156 kts 50°
2026-05-06 16:26 53.58832 9.90332 1145 ft 148 kts 51°
2026-05-06 16:26 53.59463 9.91605 891 ft 136 kts 51°
2026-05-06 16:26 53.60062 9.92813 685 ft 132 kts 50°
2026-05-06 16:27 53.60652 9.94002 503 ft 132 kts 50°
2026-05-06 16:27 53.61236 9.95183 323 ft 132 kts 51°
2026-05-06 16:27 53.61812 9.96357 139 ft 129 kts 50°
2026-05-06 16:27 53.62382 9.97506 50 ft 122 kts 50°
2026-05-06 16:28 53.62642 9.98026 52 ft 28 kts 50°
2026-05-06 16:28 53.62752 9.98262 53 ft 18 kts 66°
2026-05-06 16:28 53.62698 9.98414 52 ft 17 kts 139°
2026-05-06 16:28 53.62685 9.98434 51 ft 0 kts 139°
2026-05-06 16:29 53.62673 9.98470 49 ft 8 kts 109°
2026-05-06 16:30 53.62702 9.98579 51 ft 14 kts 51°
2026-05-06 16:30 53.62748 9.98674 51 ft 18 kts 50°
2026-05-06 16:30 53.62866 9.98914 51 ft 21 kts 50°
2026-05-06 16:30 53.62962 9.99110 51 ft 22 kts 50°
2026-05-06 16:31 53.63060 9.99313 51 ft 22 kts 53°
2026-05-06 16:31 53.63081 9.99361 51 ft 0 kts 54°
2026-05-06 16:31 53.63087 9.99376 51 ft 5 kts 55°
2026-05-06 16:32 53.63124 9.99464 52 ft 13 kts 55°
2026-05-06 16:32 53.63188 9.99605 51 ft 16 kts 50°
2026-05-06 16:32 53.63215 9.99658 51 ft 3 kts 52°
2026-05-06 16:32 53.63253 9.99733 51 ft 13 kts 46°
2026-05-06 16:33 53.63322 9.99849 51 ft 15 kts 46°
2026-05-06 16:33 53.63394 9.99991 51 ft 17 kts 51°
2026-05-06 16:33 53.63425 10.00140 51 ft 8 kts 114°
2026-05-06 16:34 53.63365 10.00206 51 ft 4 kts 94°
2026-05-06 16:34 53.63367 10.00243 51 ft 3 kts 85°
2026-05-06 16:34 53.63369 10.00268 51 ft 2 kts 85°
2026-05-06 16:34 53.63370 10.00300 51 ft 4 kts 86°
2026-05-06 16:35 53.63371 10.00334 48 ft 1 kts 86°
2026-05-06 16:35 53.63371 10.00338 48 ft 0 kts 86°
2026-05-06 16:35 53.63372 10.00339 48 ft 0 kts 86°